Pantelleria, Italy

4:41 AM CEST on August 26, 2016 (GMT +0200)
Pantelleria Mil

Weather History for LICG - September, 2012

Change the Weather History Date:

Sunday, September 30, 2012

  Actual Average Record
Temperature  
Mean Temperature 78 °F -  
Max Temperature 84 °F 72 °F 86 °F (1996)
Min Temperature 73 °F 63 °F 62 °F (2002)
Cooling Degree Days 14    
Growing Degree Days 28 (Base 50)    
Moisture  
Dew Point 72 °F    
Average Humidity 83    
Maximum Humidity 89    
Minimum Humidity 66    
Precipitation  
Precipitation 0.00 in 0.09 in - ()
Sea Level Pressure  
Sea Level Pressure 29.94 in    
Wind  
Wind Speed 6 mph ()    
Max Wind Speed 14 mph    
Max Gust Speed 30 mph    
Visibility 3.6 miles    
Events Fog , Thunderstorm    
Averages and records for this station are not official NWS values.
T = Trace of Precipitation, MM = Missing Value Source: Averaged Metar Reports

Daily Weather History Graph

Daily Weather History Graph

Search for Another Location

Airport or City:

Trip Planner

Search our weather history database for the weather conditions in past years. The results will help you decide how hot, cold, wet, or windy it might be!

Date:

Astronomy

Sep. 30, 2012 Rise Set
Actual Time 7:06 AM CEST 6:56 PM CEST
Civil Twilight 6:40 AM CEST 7:22 PM CEST
Nautical Twilight 6:10 AM CEST 7:52 PM CEST
Astronomical Twilight 5:40 AM CEST 8:22 PM CEST
Moon 6:53 PM CEST (9/30) 7:19 AM CEST (9/30)
Length of Visible Light 12h 41m
Length of Day
11h 49m
Full, 100% of the Moon is Illuminated
Sep 30
Full
Oct 8
Last Quarter
Oct 15
New
Oct 22
First Quarter
Oct 29
Full

Hourly Weather History & Observations

Time (CEST) Temp. Heat Index Dew Point Humidity Pressure Visibility Wind Dir Wind Speed Gust Speed Precip Events Conditions
5:55 AM 77.0 °F - 73.4 °F 89% 29.95 in 6.2 mi SSE 2.3 mph - N/A   Partly Cloudy
6:55 AM 75.2 °F - 69.8 °F 83% 29.92 in 4.3 mi South 2.3 mph - N/A   Partly Cloudy
7:24 AM 77.0 °F - 69.8 °F 78% 29.92 in 1.9 mi West 12.7 mph 29.9 mph N/A   Scattered Clouds
7:55 AM 75.2 °F - 71.6 °F 89% 29.92 in 3.7 mi West 13.8 mph 25.3 mph N/A   Partly Cloudy
8:00 AM 76 °F - 72 °F 84% 29.91 in 4 mi West 13.8 mph - -   Mist
8:55 AM 77.0 °F - 71.6 °F 83% 29.95 in 0.6 mi WNW 6.9 mph - N/A Fog Fog
9:05 AM 75.2 °F - 71.6 °F 89% 29.95 in 0.3 mi NNW 4.6 mph - N/A Fog Fog
9:30 AM 75.2 °F - 69.8 °F 83% 29.95 in 3.7 mi NNE 3.5 mph - N/A   Mostly Cloudy
9:55 AM 75.2 °F - 71.6 °F 89% 29.95 in 3.7 mi NNE 3.5 mph - N/A   Mostly Cloudy
10:55 AM 75.2 °F - 69.8 °F 83% 29.98 in 3.7 mi NE 4.6 mph - N/A Thunderstorm Thunderstorm
11:02 AM 77.0 °F - 71.6 °F 83% 29.95 in 3.7 mi East 9.2 mph - N/A   Scattered Clouds
11:55 AM 82.4 °F 90.9 °F 77.0 °F 84% 29.95 in 5.0 mi East 3.5 mph - N/A   Partly Cloudy
12:55 PM 82.4 °F 90.9 °F 77.0 °F 84% 29.98 in 5.0 mi WNW 10.4 mph - N/A   Partly Cloudy
1:55 PM 82.4 °F 90.9 °F 77.0 °F 84% 29.98 in 5.0 mi East 3.5 mph - N/A   Scattered Clouds
2:00 PM 82 °F - 77 °F 82% 29.95 in 5 mi East 3.5 mph - -   Mist
2:55 PM 78.8 °F - 75.2 °F 89% 29.95 in 5.0 mi East 13.8 mph - N/A   Partly Cloudy
3:55 PM 84.2 °F 89.6 °F 71.6 °F 66% 29.92 in 5.0 mi East 11.5 mph - N/A   Partly Cloudy
4:55 PM 80.6 °F 86.2 °F 75.2 °F 84% 29.92 in 5.0 mi WNW 11.5 mph - N/A   Scattered Clouds
5:55 PM 77.0 °F - 71.6 °F 83% 29.95 in 5.0 mi WNW 5.8 mph - N/A   Mostly Cloudy
6:55 PM 75.2 °F - 69.8 °F 83% 29.92 in 1.2 mi WNW 5.8 mph - N/A   Mostly Cloudy
7:55 PM 75.2 °F - 68.0 °F 78% 29.95 in 1.2 mi WNW 6.9 mph - N/A   Mostly Cloudy
8:00 PM 74 °F - 68 °F 78% 29.94 in 1 mi WNW 6.9 mph - -   Mist